Theta_e
332 333 334 334 335 336 337 338 339 339 338 338 339 341 342 343 342 341 342 342 341 341 342 346 350 351 353 352 353 353 352 350 350
329 330 332 335 337 338 338 338 338 339 339 339 340 340 341 342 343 342 342 343 344 343 343 346 349 351 352 353 353 353 352 350 350
326 330 330 333 337 337 339 340 340 340 340 339 340 341 341 342 343 343 343 344 343 343 343 346 348 348 351 353 353 353 353 352 351
325 328 329 332 336 338 339 340 341 340 340 340 341 342 342 343 343 344 345 344 344 344 343 345 347 348 349 350 352 353 353 353 352
326 329 330 330 332 335 338 338 339 340 340 340 341 343 343 343 344 345 345 345 345 345 343 345 348 349 349 351 351 353 352 352 354
315 323 327 330 331 332 336 336 338 340 341 341 342 344 343 343 344 345 345 346 347 347 347 344 346 348 349 350 352 353 352 353 352
307 311 325 329 330 330 334 337 338 340 341 342 342 343 344 343 344 345 346 348 348 346 347 347 346 347 349 350 352 353 354 353 352
311 311 312 325 329 331 333 336 337 340 341 342 342 342 343 344 345 346 347 348 350 351 347 346 348 347 348 350 351 352 353 354 353
323 317 311 318 329 332 333 336 337 339 341 342 343 342 342 345 346 346 346 346 346 349 351 350 349 348 349 348 349 340 338 349 353
324 326 317 315 328 332 334 336 338 337 340 343 343 342 343 344 346 347 347 348 347 346 347 351 350 349 349 349 351 335 335 339 353
323 329 327 326 330 333 335 337 338 339 341 343 343 343 344 346 346 347 348 349 348 348 347 347 350 351 350 349 349 333 331 336 351
323 329 335 325 332 333 335 337 338 338 341 342 344 344 345 346 347 347 348 348 349 350 350 348 348 349 351 351 351 329 328 333 350
324 330 337 333 334 334 334 335 337 338 339 341 344 345 347 349 350 349 348 349 350 352 353 351 351 350 351 344 351 331 325 331 350
318 327 333 340 333 333 335 337 337 337 339 339 344 347 349 350 351 351 351 351 352 352 352 353 353 353 354 354 348 349 323 321 350
313 321 328 334 340 340 337 337 338 337 338 342 343 345 347 349 350 351 352 352 353 353 352 351 351 352 353 355 357 333 325 321 323
316 319 325 330 334 337 339 343 345 344 345 346 344 342 343 345 349 351 353 352 352 351 352 351 350 350 351 352 355 356 325 320 319
315 320 323 326 329 331 334 336 338 339 343 348 347 345 344 344 344 346 351 353 353 351 351 350 351 350 350 352 354 355 356 346 336
310 316 322 325 326 329 332 335 337 341 344 344 343 344 347 348 348 345 347 344 342 352 354 345 351 352 353 353 352 353 340 343 353
309 310 317 322 326 329 332 334 336 338 342 342 341 341 341 340 348 345 348 333 325 305 303 303 305 311 337 337 318 319 312 309 311
310 310 314 320 324 327 329 333 334 334 335 337 337 336 338 339 334 349 342 337 336 329 314 301 298 299 306 313 315 302 300 300 301
Wind_Speed
18 17 18 20 20 19 21 20 19 18 18 17 16 17 17 15 14 9 9 9 6 6 6 6 6 8 6 7 6 5 4 3 4
17 19 21 22 22 21 20 20 22 21 19 19 17 18 15 15 13 12 11 9 8 6 5 5 6 7 8 8 7 7 6 5 5
15 20 19 20 21 22 22 22 20 20 20 20 19 19 16 14 15 13 11 8 10 8 7 7 7 7 8 7 7 8 8 6 4
16 18 20 21 23 23 22 19 20 19 20 20 18 17 16 15 14 13 11 10 10 10 8 9 8 8 8 9 9 9 8 7 7
18 19 21 22 23 20 21 23 21 22 19 19 19 18 17 17 15 14 13 11 12 10 11 9 10 9 9 9 9 9 10 10 8
8 10 11 15 14 18 21 20 20 20 20 20 18 17 17 16 15 14 15 14 12 12 11 10 10 11 11 10 10 9 9 10 10
9 9 13 17 16 19 20 20 21 20 19 19 18 18 18 17 17 16 15 15 14 13 12 12 12 12 12 11 10 10 10 10 10
10 15 13 16 19 19 20 19 17 17 18 19 19 18 18 18 17 15 15 15 15 13 14 14 13 13 12 11 10 9 10 10 11
8 13 16 19 22 22 21 22 21 20 19 19 19 18 18 17 16 16 16 15 15 14 14 14 13 13 13 13 11 14 17 13 12
12 15 14 17 23 22 21 22 21 20 20 18 19 18 17 16 15 16 16 15 13 14 15 13 14 14 13 15 14 16 18 19 13
14 16 14 10 16 18 20 19 20 14 17 18 19 17 16 15 15 15 14 13 14 13 12 14 13 14 14 13 13 15 18 19 16
13 13 9 7 7 6 11 15 15 15 16 16 16 17 17 17 17 16 15 16 16 13 13 12 14 13 14 15 14 16 17 14 14
18 16 14 8 9 9 11 9 12 15 15 16 17 17 17 15 15 17 17 17 16 13 12 13 10 12 13 15 15 15 19 17 11
16 16 17 12 10 7 10 14 15 14 14 18 14 11 12 14 16 17 16 13 12 11 12 11 11 12 12 14 13 14 17 19 13
19 21 20 19 12 9 5 5 12 11 11 6 9 11 13 13 14 12 11 13 11 12 11 12 11 11 10 10 12 15 16 20 22
14 16 16 16 13 13 12 9 9 9 2 5 8 11 12 13 12 12 12 13 12 10 11 11 10 10 9 9 9 10 17 19 20
13 13 15 14 15 14 12 10 9 7 4 5 6 6 6 6 9 9 10 9 10 10 10 10 10 10 10 9 8 8 7 9 8
10 10 12 11 11 10 11 8 7 5 5 6 7 5 3 4 6 8 8 4 4 8 8 8 10 10 8 8 8 10 11 10 8
7 9 10 12 12 11 12 9 7 7 6 6 5 4 3 2 1 3 5 6 4 9 5 4 4 5 7 3 2 9 13 13 10
9 8 10 10 9 9 11 10 9 9 8 6 5 4 3 1 2 4 5 5 7 6 5 12 12 6 6 7 10 8 9 10 11
Wind_Direction
204 201 203 207 205 200 199 196 194 192 192 196 191 189 193 198 200 195 200 192 191 197 192 189 176 193 194 204 191 200 193 197 200
198 199 198 201 205 205 203 196 196 194 192 197 191 194 194 197 197 198 197 193 185 195 178 178 187 190 196 203 197 193 193 202 203
204 206 205 200 198 199 200 202 194 192 197 195 196 194 194 197 196 197 195 182 189 186 190 180 172 194 201 206 201 200 196 208 200
206 196 199 200 198 201 198 195 195 191 194 195 195 196 194 196 196 197 193 190 192 193 189 185 180 191 200 208 208 204 199 209 205
205 202 200 201 202 194 191 192 192 193 191 191 194 193 192 194 194 191 192 191 192 189 195 186 189 187 201 213 215 206 202 207 208
193 205 207 209 202 198 196 191 187 190 188 192 191 189 191 194 194 191 194 196 193 191 189 194 193 194 202 211 216 206 202 205 204
265 215 204 205 201 199 202 189 187 186 188 188 187 188 190 191 194 193 195 194 192 189 189 195 200 201 206 205 207 208 207 205 207
257 249 234 212 203 198 195 194 177 184 184 187 184 185 188 194 193 190 192 196 197 192 193 201 205 200 206 202 202 210 208 209 212
284 249 226 216 203 194 187 188 185 179 181 180 180 184 191 191 190 188 192 193 194 193 196 202 204 209 206 206 212 209 204 204 215
328 313 285 216 197 189 186 186 181 180 177 170 180 186 189 187 189 193 195 194 193 198 202 195 206 209 208 215 214 206 205 207 220
336 319 306 207 189 185 186 182 184 158 165 173 179 184 184 185 186 191 192 192 196 201 200 203 207 211 212 216 220 204 206 205 220
331 328 305 262 158 156 158 169 167 157 166 170 175 183 186 185 184 187 188 194 197 197 198 204 209 210 211 215 223 205 206 198 219
347 353 5 339 123 120 127 142 151 155 164 171 182 188 188 183 186 191 192 197 198 198 200 210 208 214 214 215 221 207 204 200 220
0 5 12 15 39 100 143 149 149 162 167 189 181 171 176 183 190 194 197 194 195 193 200 204 209 214 216 220 214 220 205 198 214
6 8 14 16 30 41 58 104 149 155 174 154 164 169 179 187 190 192 191 189 189 192 192 202 209 212 218 218 217 211 209 207 208
7 15 16 14 20 33 50 59 97 104 82 152 156 167 180 188 186 190 188 186 187 188 192 199 207 209 217 220 215 218 211 207 210
9 13 15 12 18 20 22 30 62 87 86 80 113 136 158 163 180 183 189 187 191 195 196 199 205 207 213 216 214 209 203 217 216
2 5 8 11 14 16 10 359 32 37 75 88 84 81 99 152 177 182 173 146 202 205 203 209 204 213 202 196 210 211 202 193 202
352 359 1 10 11 11 5 2 11 15 13 57 77 84 94 92 151 168 172 163 149 57 17 346 294 240 175 174 244 182 191 199 208
331 347 4 4 0 3 2 358 14 7 1 6 23 19 353 87 166 177 168 172 182 171 53 64 53 50 138 168 159 127 122 124 110